• In Uzbekistan
  • List of Countries
  • For 7 days
  • Water Temperature
  • Satellite Maps
  • Weather Map
  • Weather Widgets
  • user-avatar
    Login

    Hourly Weather Islamabad

    Today, 17 December, Monday

    Time Temperature Precipitation Wind Pressure Humidity
    00:00 +12°C° 0 mm 2 mps 720 mmHg 21%
    01:00 +12°C° 0 mm 2 mps 720 mmHg 21%
    02:00 +10°C° 0 mm 2 mps 720 mmHg 21%
    03:00 +10°C° 0 mm 2 mps 720 mmHg 20%
    04:00 +10°C° 0 mm 2 mps 720 mmHg 20%
    05:00 +10°C° 0 mm 2 mps 720 mmHg 20%
    06:00 +10°C° 0 mm 2 mps 720 mmHg 20%
    07:00 +10°C° 0 mm 2 mps 720 mmHg 20%
    08:00 +10°C° 0 mm 2 mps 720 mmHg 21%
    09:00 +14°C° 0 mm 2 mps 721 mmHg 18%
    10:00 +17°C° 0 mm 2 mps 721 mmHg 15%
    11:00 +19°C° 0 mm 2 mps 722 mmHg 13%
    12:00 +20°C° 0 mm 2 mps 721 mmHg 13%
    13:00 +21°C° 0 mm 2 mps 721 mmHg 13%
    14:00 +23°C° 0 mm 2 mps 720 mmHg 12%
    15:00 +20°C° 0 mm 2 mps 720 mmHg 15%
    16:00 +18°C° 0 mm 2 mps 719 mmHg 18%
    17:00 +16°C° 0 mm 1 mps 719 mmHg 21%
    18:00 +15°C° 0 mm 2 mps 719 mmHg 21%
    19:00 +14°C° 0 mm 2 mps 720 mmHg 20%
    20:00 +14°C° 0 mm 2 mps 720 mmHg 20%
    21:00 +13°C° 0 mm 2 mps 720 mmHg 19%
    22:00 +13°C° 0 mm 2 mps 720 mmHg 19%
    23:00 +13°C° 0 mm 2 mps 720 mmHg 19%

    Tomorrow, 18 December, Tuesday

    Time Temperature Precipitation Wind Pressure Humidity
    00:00 +12°C° 0 mm 2 mps 720 mmHg 18%
    01:00 +12°C° 0 mm 2 mps 720 mmHg 18%
    02:00 +11°C° 0 mm 3 mps 720 mmHg 18%
    03:00 +11°C° 0 mm 3 mps 720 mmHg 18%
    04:00 +10°C° 0 mm 3 mps 719 mmHg 18%
    05:00 +10°C° 0 mm 3 mps 719 mmHg 19%
    06:00 +10°C° 0 mm 3 mps 719 mmHg 19%
    07:00 +10°C° 0 mm 3 mps 720 mmHg 20%
    08:00 +11°C° 0 mm 3 mps 720 mmHg 20%
    09:00 +14°C° 0 mm 2 mps 720 mmHg 18%
    10:00 +17°C° 0 mm 2 mps 720 mmHg 16%
    11:00 +20°C° 0 mm 2 mps 721 mmHg 14%
    12:00 +21°C° 0 mm 2 mps 720 mmHg 13%
    13:00 +21°C° 0 mm 3 mps 719 mmHg 13%
    14:00 +22°C° 0 mm 3 mps 719 mmHg 13%
    15:00 +20°C° 0 mm 2 mps 718 mmHg 15%
    16:00 +18°C° 0 mm 2 mps 718 mmHg 18%
    17:00 +16°C° 0 mm 2 mps 717 mmHg 21%
    18:00 +16°C° 0 mm 2 mps 717 mmHg 20%
    19:00 +15°C° 0 mm 2 mps 717 mmHg 20%
    20:00 +15°C° 0 mm 2 mps 717 mmHg 19%
    21:00 +14°C° 0 mm 2 mps 717 mmHg 19%
    22:00 +14°C° 0 mm 2 mps 717 mmHg 19%
    23:00 +14°C° 0 mm 2 mps 717 mmHg 18%

    Day after tomorrow, 19 December, Wednesday

    Time Temperature Precipitation Wind Pressure Humidity
    00:00 +14°C° 0 mm 2 mps 716 mmHg 18%
    01:00 +13°C° 0 mm 2 mps 716 mmHg 19%
    02:00 +13°C° 0 mm 2 mps 716 mmHg 19%
    03:00 +13°C° 0 mm 2 mps 716 mmHg 19%
    04:00 +12°C° 0 mm 2 mps 715 mmHg 19%
    05:00 +12°C° 0 mm 2 mps 715 mmHg 19%
    06:00 +12°C° 0 mm 2 mps 716 mmHg 20%
    07:00 +12°C° 0 mm 1 mps 716 mmHg 21%
    08:00 +12°C° 0 mm 1 mps 716 mmHg 22%
    09:00 +15°C° 0 mm 1 mps 717 mmHg 19%
    10:00 +19°C° 0 mm 1 mps 717 mmHg 16%
    11:00 +21°C° 0 mm 1 mps 718 mmHg 14%
    12:00 +22°C° 0 mm 1 mps 718 mmHg 14%
    13:00 +22°C° 0 mm 1 mps 717 mmHg 13%
    14:00 +23°C° 0 mm 1 mps 717 mmHg 13%
    15:00 +21°C° 0 mm 1 mps 716 mmHg 17%
    16:00 +19°C° 0 mm 1 mps 716 mmHg 20%
    17:00 +15°C° 0 mm 0 mps 716 mmHg 24%
    18:00 +15°C° 0 mm 1 mps 716 mmHg 24%
    19:00 +14°C° 0 mm 1 mps 716 mmHg 23%
    20:00 +14°C° 0 mm 1 mps 717 mmHg 23%
    21:00 +13°C° 0 mm 1 mps 717 mmHg 22%
    22:00 +13°C° 0 mm 2 mps 717 mmHg 21%
    23:00 +13°C° 0 mm 2 mps 717 mmHg 20%

    20 December, Thursday

    Time Temperature Precipitation Wind Pressure Humidity
    00:00 +12°C° 0 mm 2 mps 717 mmHg 20%
    01:00 +12°C° 0 mm 2 mps 717 mmHg 19%
    02:00 +12°C° 0 mm 2 mps 717 mmHg 18%
    03:00 +10°C° 0 mm 2 mps 717 mmHg 17%
    04:00 +10°C° 0 mm 2 mps 717 mmHg 16%
    05:00 +10°C° 0 mm 2 mps 717 mmHg 16%
    06:00 +10°C° 0 mm 2 mps 717 mmHg 16%
    07:00 +10°C° 0 mm 2 mps 718 mmHg 17%
    08:00 +10°C° 0 mm 2 mps 718 mmHg 18%
    09:00 +14°C° 0 mm 2 mps 719 mmHg 16%
    10:00 +16°C° 0 mm 2 mps 719 mmHg 14%
    11:00 +19°C° 0 mm 2 mps 720 mmHg 13%
    12:00 +20°C° 0 mm 2 mps 719 mmHg 13%
    13:00 +20°C° 0 mm 2 mps 719 mmHg 13%
    14:00 +21°C° 0 mm 3 mps 718 mmHg 13%
    15:00 +19°C° 0 mm 2 mps 718 mmHg 15%
    16:00 +17°C° 0 mm 2 mps 717 mmHg 18%
    17:00 +16°C° 0 mm 2 mps 717 mmHg 21%
    18:00 +15°C° 0 mm 2 mps 717 mmHg 21%
    19:00 +14°C° 0 mm 2 mps 718 mmHg 20%
    20:00 +13°C° 0 mm 2 mps 718 mmHg 20%
    21:00 +13°C° 0 mm 2 mps 718 mmHg 19%
    22:00 +12°C° 0 mm 2 mps 718 mmHg 19%
    23:00 +12°C° 0 mm 2 mps 718 mmHg 19%

    21 December, Friday

    Time Temperature Precipitation Wind Pressure Humidity
    00:00 +11°C° 0 mm 3 mps 718 mmHg 18%
    01:00 +10°C° 0 mm 3 mps 718 mmHg 18%
    02:00 +10°C° 0 mm 3 mps 717 mmHg 18%
    03:00 +10°C° 0 mm 3 mps 717 mmHg 18%
    04:00 +9°C° 0 mm 3 mps 717 mmHg 18%
    05:00 +9°C° 0 mm 3 mps 717 mmHg 18%
    06:00 +9°C° 0 mm 3 mps 717 mmHg 19%
    07:00 +9°C° 0 mm 3 mps 718 mmHg 19%
    08:00 +9°C° 0 mm 3 mps 718 mmHg 20%
    09:00 +13°C° 0 mm 2 mps 718 mmHg 17%
    10:00 +16°C° 0 mm 2 mps 719 mmHg 15%
    11:00 +19°C° 0 mm 2 mps 719 mmHg 13%
    12:00 +20°C° 0 mm 2 mps 719 mmHg 12%
    13:00 +20°C° 0 mm 2 mps 718 mmHg 12%
    14:00 +21°C° 0 mm 2 mps 718 mmHg 12%
    15:00 +19°C° 0 mm 2 mps 717 mmHg 15%
    16:00 +17°C° 0 mm 2 mps 717 mmHg 18%
    17:00 +15°C° 0 mm 1 mps 716 mmHg 20%
    18:00 +15°C° 0 mm 2 mps 716 mmHg 20%
    19:00 +14°C° 0 mm 2 mps 717 mmHg 20%
    20:00 +13°C° 0 mm 2 mps 717 mmHg 19%
    21:00 +13°C° 0 mm 2 mps 717 mmHg 19%
    22:00 +12°C° 0 mm 2 mps 717 mmHg 19%
    23:00 +12°C° 0 mm 2 mps 717 mmHg 18%

    22 December, Saturday

    Time Temperature Precipitation Wind Pressure Humidity
    00:00 +12°C° 0 mm 2 mps 716 mmHg 18%
    01:00 +10°C° 0 mm 2 mps 716 mmHg 18%
    02:00 +10°C° 0 mm 2 mps 716 mmHg 18%
    03:00 +10°C° 0 mm 2 mps 716 mmHg 18%
    04:00 +10°C° 0 mm 2 mps 715 mmHg 17%
    05:00 +10°C° 0 mm 2 mps 715 mmHg 17%
    06:00 +10°C° 0 mm 2 mps 716 mmHg 18%
    07:00 +10°C° 0 mm 2 mps 716 mmHg 18%
    08:00 +10°C° 0 mm 2 mps 716 mmHg 19%
    09:00 +14°C° 0 mm 2 mps 717 mmHg 17%
    10:00 +16°C° 0 mm 2 mps 718 mmHg 14%
    11:00 +20°C° 0 mm 1 mps 718 mmHg 12%
    12:00 +20°C° 0 mm 1 mps 718 mmHg 12%
    13:00 +20°C° 0 mm 2 mps 717 mmHg 12%
    14:00 +21°C° 0 mm 2 mps 717 mmHg 12%
    15:00 +20°C° 0 mm 1 mps 717 mmHg 15%
    16:00 +18°C° 0 mm 1 mps 716 mmHg 19%
    17:00 +15°C° 0 mm 1 mps 716 mmHg 22%
    18:00 +14°C° 0 mm 1 mps 716 mmHg 22%
    19:00 +13°C° 0 mm 1 mps 716 mmHg 22%
    20:00 +12°C° 0 mm 1 mps 717 mmHg 22%
    21:00 +12°C° 0 mm 1 mps 717 mmHg 22%
    22:00 +12°C° 0 mm 1 mps 717 mmHg 22%
    23:00 +10°C° 0 mm 2 mps 717 mmHg 21%
    Show more